Athens, OH

3:41 PM EDT on April 29, 2017 (GMT -0400)
Ohio University

Weather History for KUNI - August, 2014

Change the Weather History Date:

Thursday, August 14, 2014

  Actual Average (KPKB) Record (KPKB)
Temperature  
Mean Temperature 66 °F -  
Max Temperature 77 °F 84 °F 100 °F (1988)
Min Temperature 55 °F 63 °F 48 °F (2004)
Cooling Degree Days 1    
Growing Degree Days 16 (Base 50)    
Moisture  
Dew Point 54 °F    
Average Humidity 69    
Maximum Humidity 96    
Minimum Humidity 40    
Precipitation  
Precipitation 0.00 in - - ()
Sea Level Pressure  
Sea Level Pressure 30.00 in    
Wind  
Wind Speed 2 mph (NW)    
Max Wind Speed 14 mph    
Max Gust Speed 21 mph    
Visibility 10 miles    
Events      
Averages and records for this station are not official NWS values.
T = Trace of Precipitation, MM = Missing Value Source: NWS Daily Summary

Daily Weather History Graph

Daily Weather History Graph

Search for Another Location

Airport or City:

Trip Planner

Search our weather history database for the weather conditions in past years. The results will help you decide how hot, cold, wet, or windy it might be!

Date:

Astronomy

Aug. 14, 2014 Rise Set
Actual Time 6:41 AM EDT 8:25 PM EDT
Civil Twilight 6:12 AM EDT 8:54 PM EDT
Nautical Twilight 5:37 AM EDT 9:28 PM EDT
Astronomical Twilight 5:00 AM EDT 10:05 PM EDT
Moon 10:50 PM EDT (8/14) 11:14 AM EDT (8/14)
Length of Visible Light 14h 41m
Length of Day
13h 44m
Waning Gibbous, 79% of the Moon is Illuminated
Aug 14
Waning Gibbous
Aug 17
Last Quarter
Aug 25
New
Sep 2
First Quarter
Sep 8
Full

Hourly Weather History & Observations

Time (EDT) Temp. Dew Point Humidity Pressure Visibility Wind Dir Wind Speed Gust Speed Precip Events Conditions
12:15 AM 58.3 °F 56.3 °F 93% 30.01 in 10.0 mi Calm Calm - N/A   Clear
12:55 AM 57.2 °F 55.4 °F 94% 30.01 in 10.0 mi Calm Calm - N/A   Clear
1:15 AM 57.2 °F 55.4 °F 94% 30.01 in 10.0 mi Calm Calm - N/A   Clear
1:35 AM 56.8 °F 55.0 °F 94% 30.01 in 10.0 mi Calm Calm - N/A   Clear
1:55 AM 57.4 °F 55.6 °F 94% 30.00 in 10.0 mi Calm Calm - N/A   Clear
2:15 AM 56.1 °F 54.3 °F 94% 30.00 in 10.0 mi Calm Calm - N/A   Clear
2:35 AM 56.3 °F 54.7 °F 94% 29.99 in 10.0 mi Calm Calm - N/A   Clear
2:55 AM 55.9 °F 54.3 °F 94% 29.99 in 10.0 mi Calm Calm - N/A   Clear
3:15 AM 55.6 °F 54.1 °F 95% 29.99 in 10.0 mi Calm Calm - N/A   Clear
3:35 AM 55.8 °F 54.5 °F 96% 29.98 in 10.0 mi Calm Calm - N/A   Clear
3:55 AM 55.8 °F 54.3 °F 95% 29.98 in 10.0 mi Calm Calm - N/A   Clear
4:15 AM 55.9 °F 54.5 °F 95% 29.98 in 10.0 mi Calm Calm - N/A   Clear
4:35 AM 55.4 °F 53.8 °F 94% 29.98 in 10.0 mi Calm Calm - N/A   Clear
4:55 AM 56.5 °F 54.9 °F 94% 29.98 in 10.0 mi Calm Calm - N/A   Scattered Clouds
5:15 AM 57.0 °F 55.0 °F 93% 29.98 in 10.0 mi Calm Calm - N/A   Scattered Clouds
5:35 AM 56.1 °F 54.1 °F 93% 29.99 in 10.0 mi Calm Calm - N/A   Clear
6:15 AM 55.8 °F 54.1 °F 94% 29.99 in 10.0 mi Calm Calm - N/A   Clear
6:35 AM 55.0 °F 53.4 °F 94% 30.00 in 10.0 mi Calm Calm - N/A   Mostly Cloudy
6:55 AM 56.3 °F 54.5 °F 94% 30.00 in 10.0 mi Calm Calm - N/A   Mostly Cloudy
7:15 AM 57.0 °F 55.2 °F 94% 30.01 in 10.0 mi Calm Calm - N/A   Overcast
7:35 AM 58.3 °F 56.5 °F 94% 30.02 in 10.0 mi Calm Calm - N/A   Overcast
7:55 AM 59.9 °F 57.6 °F 92% 30.02 in 10.0 mi Calm Calm - N/A   Mostly Cloudy
8:15 AM 61.0 °F 57.7 °F 89% 30.03 in 10.0 mi Calm Calm - N/A   Clear
8:35 AM 61.9 °F 58.5 °F 89% 30.04 in 10.0 mi West 3.5 mph - N/A   Clear
8:55 AM 63.7 °F 59.0 °F 85% 30.04 in 10.0 mi West 5.8 mph - N/A   Clear
9:15 AM 64.8 °F 57.9 °F 78% 30.04 in 10.0 mi NW 4.6 mph - N/A   Clear
9:35 AM 65.8 °F 55.9 °F 70% 30.04 in 10.0 mi Calm Calm - N/A   Clear
9:55 AM 66.2 °F 55.0 °F 67% 30.04 in 10.0 mi NNW 3.5 mph - N/A   Clear
10:15 AM 67.8 °F 55.6 °F 65% 30.04 in 10.0 mi WNW 4.6 mph - N/A   Clear
10:35 AM 68.4 °F 54.9 °F 62% 30.04 in 10.0 mi NW 3.5 mph - N/A   Clear
10:55 AM 69.8 °F 54.7 °F 59% 30.04 in 10.0 mi Calm Calm - N/A   Clear
11:15 AM 71.1 °F 54.9 °F 56% 30.04 in 10.0 mi WNW 4.6 mph - N/A   Scattered Clouds
11:35 AM 71.1 °F 50.7 °F 49% 30.04 in 10.0 mi North 5.8 mph - N/A   Mostly Cloudy
11:55 AM 72.5 °F 51.4 °F 47% 30.03 in 10.0 mi NW 3.5 mph - N/A   Scattered Clouds
12:15 PM 73.0 °F 50.4 °F 45% 30.03 in 10.0 mi WNW 8.1 mph - N/A   Scattered Clouds
12:35 PM 73.6 °F 50.7 °F 45% 30.03 in 10.0 mi North 9.2 mph - N/A   Clear
12:55 PM 73.6 °F 51.1 °F 45% 30.02 in 10.0 mi WNW 3.5 mph - N/A   Clear
1:15 PM 74.5 °F 50.9 °F 43% 30.02 in 10.0 mi WNW 4.6 mph - N/A   Clear
1:35 PM 73.8 °F 50.4 °F 44% 30.01 in 10.0 mi WNW 4.6 mph - N/A   Scattered Clouds
1:55 PM 75.9 °F 50.9 °F 41% 30.00 in 10.0 mi NW 9.2 mph - N/A   Scattered Clouds
2:15 PM 77.0 °F 52.2 °F 42% 30.00 in 10.0 mi West 10.4 mph - N/A   Mostly Cloudy
2:35 PM 75.4 °F 51.1 °F 42% 30.00 in 10.0 mi West 10.4 mph - N/A   Mostly Cloudy
2:55 PM 75.6 °F 51.8 °F 43% 30.00 in 10.0 mi WNW 8.1 mph - N/A   Overcast
3:15 PM 76.3 °F 50.7 °F 41% 29.99 in 10.0 mi West 13.8 mph 20.7 mph N/A   Mostly Cloudy
3:35 PM 77.2 °F 51.1 °F 40% 29.99 in 10.0 mi WNW 9.2 mph - N/A   Mostly Cloudy
3:55 PM 76.6 °F 50.9 °F 40% 29.99 in 10.0 mi West 12.7 mph - N/A   Mostly Cloudy
4:15 PM 75.0 °F 51.6 °F 44% 29.99 in 10.0 mi NNW 6.9 mph - N/A   Overcast
4:35 PM 75.2 °F 52.3 °F 45% 29.99 in 10.0 mi WNW 6.9 mph - N/A   Mostly Cloudy
4:55 PM 75.6 °F 52.3 °F 44% 29.98 in 10.0 mi WNW 8.1 mph - N/A   Mostly Cloudy
5:15 PM 73.9 °F 51.3 °F 45% 29.98 in 10.0 mi NNW 3.5 mph - N/A   Mostly Cloudy
5:35 PM 74.3 °F 52.2 °F 46% 29.97 in 10.0 mi NNW 4.6 mph - N/A   Mostly Cloudy
5:55 PM 76.1 °F 52.5 °F 44% 29.97 in 10.0 mi WNW 9.2 mph - N/A   Scattered Clouds
6:15 PM 75.6 °F 51.4 °F 43% 29.97 in 10.0 mi NW 10.4 mph - N/A   Scattered Clouds
6:35 PM 75.2 °F 51.8 °F 44% 29.97 in 10.0 mi NNW 5.8 mph - N/A   Clear
6:55 PM 74.3 °F 52.0 °F 46% 29.97 in 10.0 mi NNW 5.8 mph - N/A   Clear
7:15 PM 73.6 °F 51.8 °F 46% 29.97 in 10.0 mi NNW 5.8 mph - N/A   Clear
7:35 PM 72.7 °F 52.3 °F 49% 29.97 in 10.0 mi NNW 4.6 mph - N/A   Clear
7:55 PM 71.2 °F 53.1 °F 53% 29.97 in 10.0 mi Calm Calm - N/A   Clear
8:15 PM 70.2 °F 52.7 °F 54% 29.98 in 10.0 mi Calm Calm - N/A   Clear
8:35 PM 69.1 °F 52.7 °F 56% 29.98 in 10.0 mi Calm Calm - N/A   Clear
8:55 PM 66.2 °F 53.4 °F 63% 29.99 in 10.0 mi Calm Calm - N/A   Clear
9:15 PM 62.6 °F 54.5 °F 75% 29.99 in 10.0 mi Calm Calm - N/A   Clear
9:35 PM 61.3 °F 54.7 °F 79% 30.00 in 10.0 mi Calm Calm - N/A   Clear
9:55 PM 60.8 °F 54.7 °F 80% 30.01 in 10.0 mi Calm Calm - N/A   Clear
10:15 PM 60.1 °F 54.5 °F 82% 30.01 in 10.0 mi Calm Calm - N/A   Scattered Clouds
10:35 PM 59.2 °F 55.2 °F 87% 30.02 in 10.0 mi Calm Calm - N/A   Overcast
10:55 PM 60.6 °F 55.4 °F 83% 30.02 in 10.0 mi Calm Calm - N/A   Overcast
11:15 PM 60.3 °F 55.6 °F 85% 30.02 in 10.0 mi Calm Calm - N/A   Overcast
11:35 PM 59.4 °F 55.4 °F 87% 30.02 in 10.0 mi Calm Calm - N/A   Scattered Clouds
11:55 PM 58.5 °F 55.2 °F 89% 30.02 in 10.0 mi Calm Calm - N/A   Clear